STARLINK-38132, 100154

Orbit data source: Space-Track

STARLINK-38132, 100154 is a payload satellite owned by SpaceX/Seattle (US) in SSO that was launched on Sat, 25 Jul 2026 UTC launched from the Air Force Western Test Range (AFWTR). Payload-class satellites include a variety of spacecraft equipped with specific instruments for various scientific and technological missions. These include communications satellites like Starlink; space stations such as the ISS; scientific satellites like the Hubble; Earth observation satellites from companies like Planet Labs, Umbra, and HawkEye 360; GPS; miniature CubeSats for education and research; and military/defense satellites.

Loading next visibility...
Identifier
100154, 2026-171G
Orbit
SSO
Country
Flag of USUS
Related business
Manufacturer
SpaceX/Seattle
Mission
Operational spacecraft
Bus & Motor
STARLINK V2MO, Unknown motor
Mass
575 kg wet, ~530 kg dry
Launch date (UTC)
2026-07-25 (3 weeks ago)
Launch vehicle
Unknown
Launch site
Air Force Western Test Range (AFWTR)
Object type
Payload
Rocket body
Debris
Shape & HBR
BOX + PAN, 17.7 m
Radar Cross Section
RCS unknown

Expand to show TLE details & history
Last TLE update: 8 hours ago

TLE from 8 hours ago
0 STARLINK-38132
1 A0154U 26171G   26227.61707562  .00140020  00000-0  92477-3 0  9999
2 A0154  97.2828 259.4575 0002173  91.8373 268.3141 15.75177260  3323
Epoch: 2026-08-15T14:48Z
TLE epoch observation values (Epoch: 2026-08-15T14:48:35.333Z)
Latitude
-0.00004°
Longitude
73.2849°
Altitude
347.338 km
Speed
7.7 km/s
True Right ascension
17h 17m 49s
True Declination
0° 00' 00"
Sunlit
Object was in full shadow at epoch
Visualization orbit readout
Latitude
Unknown
Longitude
Unknown
Altitude
Unknown
Speed
Unknown
Apparent Right ascension
Unknown
Apparent Declination
Unknown
Sunlit
N/A
Visualization observer readout
Local Sidereal Time
13:39:36
Azimuth
Unknown
Elevation
Unknown
Doppler factor
Unknown
Orbital elements
Apogee altitude
342.474 km
Perigee altitude
339.554 km
Semi-major axis
6,719.151 km
Eccentricity
0.00022
Inclination
97.2828°
RAAN
259.4575°
Arg. of periapsis
91.8373°
True anomaly
268.28921°
Mean anomaly
268.3141°
Eccentric anomaly
268.30166°
Mean motion
3.94068 °/min
Orbital period
91.35 mins
BSTAR
0.00092477
Loading maneuver chart data...
Computing Atmospheric mass density...
Loading historical data...
Loading historical data...
Loading historical data...
Loading historical data...
Loading historical data...
Loading historical data...
Loading historical data...

Documentation

Showing up to 5 results
|